Tracking 30995 objects as of 5-Jul-2025
HD Live streaming from Space Station
objects crossing your sky now

ONEWEB-0165

Track ONEWEB-0165 now!
10-day predictions
ONEWEB-0165 is classified as:


NORAD ID: 48233
Int'l Code: 2021-031Z
Perigee: 1,211.6 km
Apogee: 1,214.3 km
Inclination: 87.9 °
Period: 109.5 minutes
Semi major axis: 7583 km
RCS: Unknown
Launch date: April 25, 2021
Source: United Kingdom (UK)
Launch site: VOSTOCHNY COSMODROME (VOSTO)
Your satellite tracking list
Your tracking list is empty




NASA's NSSDC Master Catalog

Two Line Element Set (TLE):
1 48233U 21031Z   25186.48468448  .00000109  00000-0  26070-3 0  9993
2 48233  87.9040 358.7066 0001766  84.3870 275.7461 13.14504217202818
Source of the keplerian elements: AFSPC